Weather History for Haleyville, AL

Change the Weather History Date:

Sunday, November 4, 2012

  Actual Average (KJFX) Record (KJFX)
Temperature  
Mean Temperature 50 °F -  
Max Temperature 60 °F 66 °F 82 °F (1974)
Min Temperature 37 °F 39 °F 19 °F (1966)
Degree Days  
Heating Degree Days 14    
Moisture  
Dew Point 47 °F    
Average Humidity 82    
Maximum Humidity 100    
Minimum Humidity 46    
Precipitation  
Precipitation 0.00 in - - ()
Sea Level Pressure  
Sea Level Pressure 30.13 in    
Wind  
Wind Speed 3 mph (NNW)    
Max Wind Speed 10 mph    
Max Gust Speed -    
Visibility 10 miles    
Events      
Averages and records for this station are not official NWS values.
T = Trace of Precipitation, MM = Missing Value Source: NWS Daily Summary

Daily Weather History Graph

Daily Weather History Graph

Search for Another Location

Airport:

Trip Planner

Search our weather history database for the weather conditions in past years. The results will help you decide how hot, cold, wet, or windy it might be!

Date:

Astronomy

Nov. 04, 2012 Rise Set
Actual Time 6:13 AM CST 4:53 PM CST
Civil Twilight 5:47 AM CST 5:20 PM CST
Nautical Twilight 5:17 AM CST 5:49 PM CST
Astronomical Twilight 4:48 AM CST 6:19 PM CST
Moon 9:33 PM CST (11/4) 10:54 AM CST (11/4)
Length of Visible Light 11h 32m
Length of Day
10h 40m
Waning Gibbous, 72% of the Moon is Illuminated
Nov 4
Waning Gibbous
Nov 6
Last Quarter
Nov 13
New
Nov 20
First Quarter
Nov 28
Full

Hourly Weather History & Observations

Time (CST) Temp. Dew Point Humidity Pressure Visibility Wind Dir Wind Speed Gust Speed Precip Events Conditions
12:03 AM 60.8 °F 57.2 °F 88% 30.06 in 10.0 mi Calm Calm - N/A   Clear
12:56 AM 59.0 °F 56.8 °F 93% 30.09 in 10.0 mi Calm Calm - N/A   Clear
1:34 AM 57.2 °F 57.2 °F 100% 30.05 in 10.0 mi Calm Calm - N/A   Mostly Cloudy
1:56 AM 59.0 °F 57.9 °F 96% 30.10 in 10.0 mi Calm Calm - N/A   Overcast
1:43 AM 57.2 °F 57.2 °F 100% 30.05 in 9.0 mi Calm Calm - N/A   Scattered Clouds
1:56 AM 57.9 °F 57.9 °F 100% 30.09 in 8.0 mi Calm Calm - N/A   Mostly Cloudy
2:38 AM 57.2 °F 55.4 °F 94% 30.06 in 9.0 mi NW 3.5 mph - N/A   Overcast
2:56 AM 55.9 °F 54.9 °F 96% 30.09 in 8.0 mi North 6.9 mph - N/A   Mostly Cloudy
3:04 AM 55.4 °F 55.4 °F 100% 30.05 in 8.0 mi Calm Calm - N/A   Scattered Clouds
3:19 AM 55.4 °F 53.6 °F 94% 30.05 in 6.0 mi NNW 3.5 mph - N/A   Partly Cloudy
3:56 AM 52.9 °F 52.0 °F 97% 30.11 in 9.0 mi NNW 5.8 mph - N/A   Clear
4:56 AM 52.0 °F 48.9 °F 89% 30.13 in 10.0 mi NNW 4.6 mph - N/A   Clear
5:56 AM 50.0 °F 47.8 °F 92% 30.12 in 10.0 mi North 4.6 mph - N/A   Clear
6:56 AM 48.9 °F 46.9 °F 93% 30.16 in 10.0 mi North 8.1 mph - N/A   Clear
7:56 AM 48.9 °F 45.0 °F 86% 30.18 in 10.0 mi North 6.9 mph - N/A   Scattered Clouds
8:56 AM 48.9 °F 43.9 °F 83% 30.18 in 10.0 mi North 8.1 mph - N/A   Clear
9:56 AM 52.9 °F 43.9 °F 71% 30.18 in 10.0 mi NNW 6.9 mph - N/A   Clear
10:56 AM 55.9 °F 43.0 °F 62% 30.17 in 10.0 mi Variable 3.5 mph - N/A   Clear
11:56 AM 56.8 °F 43.0 °F 60% 30.16 in 10.0 mi NNW 10.4 mph - N/A   Clear
12:56 PM 59.9 °F 41.9 °F 51% 30.14 in 10.0 mi North 9.2 mph - N/A   Clear
1:56 PM 59.9 °F 39.9 °F 48% 30.14 in 10.0 mi NW 9.2 mph - N/A   Clear
2:56 PM 59.9 °F 38.8 °F 46% 30.14 in 10.0 mi North 9.2 mph - N/A   Clear
3:56 PM 57.9 °F 39.9 °F 51% 30.14 in 10.0 mi North 4.6 mph - N/A   Clear
4:56 PM 52.9 °F 41.0 °F 64% 30.15 in 10.0 mi Calm Calm - N/A   Clear
5:56 PM 47.8 °F 41.0 °F 77% 30.16 in 10.0 mi Calm Calm - N/A   Clear
6:56 PM 45.0 °F 39.9 °F 82% 30.17 in 10.0 mi Calm Calm - N/A   Clear
7:56 PM 41.9 °F 37.9 °F 86% 30.18 in 10.0 mi Calm Calm - N/A   Clear
8:56 PM 41.0 °F 36.9 °F 85% 30.17 in 10.0 mi Calm Calm - N/A   Clear
9:56 PM 41.0 °F 34.9 °F 79% 30.17 in 10.0 mi Calm Calm - N/A   Clear
10:56 PM 37.9 °F 36.0 °F 93% 30.17 in 10.0 mi Calm Calm - N/A   Clear